Sagona Island, Canada

10:12 PM NDT on August 19, 2017 (GMT -0230)
Sagona Island

Weather History for CWZN - November, 2012

Change the Weather History Date:

Tuesday, November 6, 2012

  Actual Average Record
Temperature  
Mean Temperature 49 °F -  
Max Temperature 57 °F - - ()
Min Temperature 41 °F - - ()
Degree Days  
Heating Degree Days 16    
Moisture  
Dew Point 40 °F    
Average Humidity 80    
Maximum Humidity 98    
Minimum Humidity 51    
Precipitation  
Precipitation 0.00 in - - ()
Sea Level Pressure  
Sea Level Pressure 29.82 in    
Wind  
Wind Speed 25 mph ()    
Max Wind Speed 45 mph    
Max Gust Speed 53 mph    
T = Trace of Precipitation, MM = Missing Value Source: Averaged Metar Reports

Daily Weather History Graph

Daily Weather History Graph

Search for Another Location

Airport or City:

Trip Planner

Search our weather history database for the weather conditions in past years. The results will help you decide how hot, cold, wet, or windy it might be!

Date:

Astronomy

Nov. 06, 2012 Rise Set
Actual Time 7:04 AM NST 4:48 PM NST
Civil Twilight 6:32 AM NST 5:20 PM NST
Nautical Twilight 5:55 AM NST 5:57 PM NST
Astronomical Twilight 5:19 AM NST 6:33 PM NST
Moon 11:26 PM NST (11/6) 12:50 PM NST (11/6)
Length of Visible Light 10h 48m
Length of Day
9h 43m
Waning Gibbous, 54% of the Moon is Illuminated
Nov 6
Waning Gibbous
Nov 6
Last Quarter
Nov 13
New
Nov 20
First Quarter
Nov 28
Full

Hourly Weather History & Observations

Time (NST) Temp. Windchill Dew Point Humidity Pressure Visibility Wind Dir Wind Speed Gust Speed Precip Events Conditions
12:10 AM 47.7 °F - 44.1 °F 87% 29.96 in - South 15.0 mph - N/A   Unknown
12:30 AM 47.7 °F - 43.3 °F 85% 29.95 in - South 15.0 mph - N/A   Unknown
1:10 AM 47.3 °F - 43.7 °F 87% 29.95 in - SSE 13.8 mph - N/A   Unknown
1:30 AM 47.7 °F - 44.1 °F 87% 29.94 in - SSE 13.8 mph - N/A   Unknown
2:10 AM 47.7 °F - 45.0 °F 90% 29.93 in - SE 15.0 mph - N/A   Unknown
2:30 AM 47 °F - 45 °F 91% 29.92 in - ESE 16.1 mph - -  
2:30 AM 47.3 °F - 45.1 °F 92% 29.92 in - ESE 16.1 mph - N/A   Unknown
3:10 AM 47.3 °F - 45.7 °F 94% 29.89 in - ESE 16.1 mph - N/A   Unknown
4:30 AM 47.3 °F - 45.9 °F 95% 29.83 in - East 18.4 mph - N/A   Unknown
5:10 AM 47.1 °F - 46.2 °F 97% 29.78 in - East 24.2 mph - N/A   Unknown
5:30 AM 46.9 °F - 45.5 °F 95% 29.75 in - ENE 26.5 mph - N/A   Unknown
6:10 AM 46.9 °F - 45.3 °F 94% 29.66 in - East 34.5 mph - N/A   Unknown
6:30 AM 46.6 °F - 45.5 °F 96% 29.59 in - ENE 39.1 mph 46.0 mph N/A   Unknown
7:10 AM 46.4 °F 35.3 °F 45.9 °F 98% 29.49 in - ENE 44.9 mph 52.9 mph N/A   Unknown
8:30 AM 57 °F - 55 °F 92% 29.40 in - ENE 40.3 mph - -  
8:30 AM 56.7 °F - 55.4 °F 96% 29.40 in - ENE 40.3 mph 49.5 mph N/A   Unknown
9:10 AM 54.1 °F - 53.2 °F 97% 29.36 in - South 44.9 mph - N/A   Unknown
9:30 AM 53.4 °F - 52.5 °F 97% 29.37 in - SSE 42.6 mph 49.5 mph N/A   Unknown
10:10 AM 50.4 °F - 47.8 °F 91% 29.43 in - SW 39.1 mph 46.0 mph N/A   Unknown
10:30 AM 49.6 °F - 46.4 °F 89% 29.50 in - South 35.7 mph - N/A   Unknown
11:10 AM 49.5 °F - 45.1 °F 85% 29.60 in - West 36.8 mph 46.0 mph N/A   Unknown
12:30 PM 48.7 °F - 45.3 °F 88% 29.69 in - West 26.5 mph - N/A   Unknown
1:10 PM 47.8 °F - 42.1 °F 80% 29.73 in - WSW 34.5 mph 42.6 mph N/A   Unknown
1:30 PM 46.6 °F - 41.4 °F 82% 29.74 in - WSW 38.0 mph 46.0 mph N/A   Unknown
2:10 PM 46.4 °F 35.8 °F 40.8 °F 81% 29.77 in - West 40.3 mph 48.3 mph N/A   Unknown
2:30 PM 46 °F - 40 °F 73% 29.81 in - West 35.7 mph - -  
2:30 PM 46.4 °F 36.4 °F 40.1 °F 79% 29.81 in - West 35.7 mph - N/A   Unknown
3:10 PM 46.0 °F 35.9 °F 39.4 °F 78% 29.83 in - West 35.7 mph 43.7 mph N/A   Unknown
3:30 PM 45.5 °F 34.9 °F 40.3 °F 82% 29.83 in - WSW 38.0 mph 44.9 mph N/A   Unknown
4:10 PM 44.1 °F 32.6 °F 36.5 °F 75% 29.88 in - West 40.3 mph 47.2 mph N/A   Unknown
5:30 PM 42.4 °F 30.8 °F 30.0 °F 61% 29.93 in - WSW 36.8 mph 44.9 mph N/A   Unknown
6:10 PM 42.3 °F 30.5 °F 29.3 °F 60% 29.96 in - West 36.8 mph 43.7 mph N/A   Unknown
6:30 PM 42.4 °F 31.3 °F 31.3 °F 65% 29.98 in - WSW 33.4 mph 40.3 mph N/A   Unknown
7:10 PM 42.4 °F 31.1 °F 29.3 °F 60% 30.00 in - West 34.5 mph 44.9 mph N/A   Unknown
7:30 PM 42.3 °F 30.9 °F 32.0 °F 67% 30.01 in - WSW 34.5 mph 41.4 mph N/A   Unknown
8:10 PM 41.9 °F 30.5 °F 30.6 °F 64% 30.03 in - West 33.4 mph 41.4 mph N/A   Unknown
8:30 PM 42 °F - 30 °F 51% 30.04 in - WSW 33.4 mph - -  
8:30 PM 41.7 °F 30.3 °F 30.0 °F 63% 30.04 in - WSW 33.4 mph 40.3 mph N/A   Unknown
9:10 PM 41.5 °F 29.9 °F 28.6 °F 60% 30.06 in - West 34.5 mph 41.4 mph N/A   Unknown
9:30 PM 41.7 °F 30.3 °F 30.7 °F 65% 30.07 in - West 33.4 mph 41.4 mph N/A   Unknown
10:10 PM 41.4 °F 30.0 °F 28.6 °F 60% 30.08 in - West 32.2 mph 42.6 mph N/A   Unknown
10:30 PM 41.2 °F 29.4 °F 27.9 °F 59% 30.08 in - West 34.5 mph 40.3 mph N/A   Unknown
11:10 PM 41.5 °F 30.4 °F 31.1 °F 66% 30.08 in - West 31.1 mph 38.0 mph N/A   Unknown
11:30 PM 41.0 °F 29.7 °F 29.3 °F 63% 30.08 in - West 31.1 mph 38.0 mph N/A   Unknown